TimeCDT,TemperatureF,Dew PointF,Humidity,Sea Level PressureIn,VisibilityMPH,Wind Direction,Wind SpeedMPH,Gust SpeedMPH,PrecipitationIn,Events,Conditions,WindDirDegrees,DateUTC
12:15 AM,70.7,55.0,58,30.01,10.0,SE,10.4,17.3,N/A,,Clear,130,2013-05-07 05:15:00
12:35 AM,70.2,55.2,59,30.01,10.0,SE,10.4,17.3,N/A,,Clear,140,2013-05-07 05:35:00
1:15 AM,69.1,55.9,63,30.01,10.0,SE,8.1,-,N/A,,Clear,130,2013-05-07 06:15:00
1:35 AM,68.5,56.3,65,30.00,10.0,SE,6.9,-,N/A,,Clear,130,2013-05-07 06:35:00
1:55 AM,68.0,56.5,67,30.00,10.0,ESE,6.9,-,N/A,,Clear,120,2013-05-07 06:55:00
2:15 AM,67.5,56.7,68,29.99,10.0,ESE,9.2,-,N/A,,Clear,110,2013-05-07 07:15:00
2:35 AM,67.3,57.2,70,29.98,10.0,ESE,8.1,-,N/A,,Clear,120,2013-05-07 07:35:00
2:55 AM,67.3,57.6,71,29.98,10.0,ESE,6.9,-,N/A,,Clear,120,2013-05-07 07:55:00
3:15 AM,67.1,57.7,72,29.97,10.0,ESE,8.1,-,N/A,,Clear,120,2013-05-07 08:15:00
3:35 AM,66.7,58.1,74,29.97,10.0,SE,6.9,-,N/A,,Clear,130,2013-05-07 08:35:00
3:55 AM,66.4,58.1,75,29.97,10.0,ESE,6.9,-,N/A,,Clear,120,2013-05-07 08:55:00
4:15 AM,66.2,58.1,75,29.97,10.0,ESE,6.9,-,N/A,,Mostly Cloudy,110,2013-05-07 09:15:00
4:35 AM,66.2,58.3,76,29.97,10.0,ESE,5.8,-,N/A,,Overcast,120,2013-05-07 09:35:00
4:55 AM,66.6,58.6,76,29.97,10.0,ESE,5.8,-,N/A,,Overcast,110,2013-05-07 09:55:00
5:15 AM,66.7,59.0,76,29.97,10.0,ESE,6.9,-,N/A,,Overcast,110,2013-05-07 10:15:00
5:35 AM,67.1,59.2,76,29.98,10.0,ESE,6.9,-,N/A,,Overcast,120,2013-05-07 10:35:00
5:55 AM,67.3,59.4,76,29.98,10.0,ESE,6.9,-,N/A,,Overcast,120,2013-05-07 10:55:00
6:15 AM,67.6,59.9,76,29.98,10.0,ESE,5.8,-,N/A,,Overcast,110,2013-05-07 11:15:00
6:35 AM,68.0,59.9,75,29.99,10.0,ESE,5.8,-,N/A,,Overcast,120,2013-05-07 11:35:00
6:55 AM,68.2,60.1,75,29.99,10.0,ESE,6.9,-,N/A,,Overcast,120,2013-05-07 11:55:00
7:15 AM,68.4,60.3,75,29.99,10.0,ESE,8.1,-,N/A,,Overcast,120,2013-05-07 12:15:00
7:35 AM,68.9,60.4,74,30.00,10.0,ESE,6.9,-,N/A,,Overcast,120,2013-05-07 12:35:00
7:55 AM,68.9,60.4,74,30.01,10.0,SE,8.1,-,N/A,,Overcast,130,2013-05-07 12:55:00
8:15 AM,69.3,60.6,74,30.01,10.0,ESE,8.1,-,N/A,,Overcast,120,2013-05-07 13:15:00
8:35 AM,69.8,60.8,73,30.02,10.0,SE,4.6,-,N/A,,Overcast,130,2013-05-07 13:35:00
8:55 AM,70.7,61.0,71,30.01,10.0,ESE,11.5,-,N/A,,Overcast,110,2013-05-07 13:55:00
9:15 AM,70.7,61.0,71,30.02,10.0,ESE,12.7,-,N/A,,Overcast,120,2013-05-07 14:15:00
9:35 AM,71.6,61.2,70,30.03,10.0,SE,9.2,-,N/A,,Overcast,130,2013-05-07 14:35:00
9:55 AM,72.7,61.3,67,30.03,10.0,ESE,10.4,-,N/A,,Overcast,120,2013-05-07 14:55:00
10:15 AM,72.5,61.2,67,30.04,10.0,ESE,9.2,16.1,N/A,,Overcast,120,2013-05-07 15:15:00
10:35 AM,73.8,61.5,65,30.03,10.0,ESE,10.4,-,N/A,,Overcast,120,2013-05-07 15:35:00
10:55 AM,73.4,61.3,66,30.03,10.0,SE,9.2,-,N/A,,Overcast,130,2013-05-07 15:55:00
11:15 AM,74.3,61.5,64,30.04,10.0,SE,8.1,-,N/A,,Overcast,140,2013-05-07 16:15:00
11:35 AM,74.5,61.5,64,30.04,10.0,SE,10.4,-,N/A,,Overcast,130,2013-05-07 16:35:00
11:55 AM,74.8,61.7,64,30.04,10.0,SE,8.1,-,N/A,,Overcast,140,2013-05-07 16:55:00
12:15 PM,74.8,61.7,64,30.04,10.0,ESE,8.1,-,N/A,,Overcast,120,2013-05-07 17:15:00
12:35 PM,75.0,61.7,63,30.03,10.0,ESE,8.1,-,N/A,,Overcast,120,2013-05-07 17:35:00
12:55 PM,75.2,61.7,63,30.02,10.0,ESE,8.1,-,N/A,,Overcast,110,2013-05-07 17:55:00
1:15 PM,75.9,61.9,62,30.02,10.0,ESE,9.2,-,N/A,,Overcast,110,2013-05-07 18:15:00
1:35 PM,77.2,61.7,59,30.01,10.0,East,6.9,-,N/A,,Overcast,100,2013-05-07 18:35:00
1:55 PM,79.0,61.7,55,30.00,10.0,SE,9.2,-,N/A,,Overcast,140,2013-05-07 18:55:00
2:15 PM,79.7,61.7,54,29.99,10.0,ESE,9.2,-,N/A,,Overcast,110,2013-05-07 19:15:00
2:35 PM,82.0,61.2,49,29.98,10.0,ESE,9.2,17.3,N/A,,Overcast,120,2013-05-07 19:35:00
2:55 PM,80.8,61.3,51,29.98,10.0,East,6.9,-,N/A,,Mostly Cloudy,90,2013-05-07 19:55:00
3:15 PM,80.2,61.0,52,29.97,10.0,ENE,8.1,-,N/A,,Overcast,70,2013-05-07 20:15:00
3:35 PM,80.8,61.2,51,29.96,10.0,East,4.6,-,N/A,,Overcast,80,2013-05-07 20:35:00
3:55 PM,82.0,61.0,49,29.95,10.0,East,9.2,-,N/A,,Overcast,100,2013-05-07 20:55:00
4:15 PM,83.3,60.3,46,29.93,10.0,SE,10.4,-,N/A,,Overcast,130,2013-05-07 21:15:00
4:35 PM,83.3,60.1,45,29.92,10.0,SE,9.2,-,N/A,,Scattered Clouds,140,2013-05-07 21:35:00
5:15 PM,86.2,58.8,39,29.90,10.0,SE,11.5,19.6,N/A,,Scattered Clouds,140,2013-05-07 22:15:00
5:35 PM,86.4,58.1,38,29.89,10.0,SE,12.7,20.7,N/A,,Scattered Clouds,140,2013-05-07 22:35:00
5:55 PM,87.3,57.4,36,29.89,10.0,ESE,10.4,19.6,N/A,,Scattered Clouds,120,2013-05-07 22:55:00
6:15 PM,86.5,57.4,37,29.89,10.0,SE,12.7,16.1,N/A,,Scattered Clouds,140,2013-05-07 23:15:00
6:35 PM,86.2,57.2,37,29.89,10.0,SE,13.8,-,N/A,,Scattered Clouds,140,2013-05-07 23:35:00
6:55 PM,85.8,56.7,37,29.89,10.0,SSE,11.5,-,N/A,,Scattered Clouds,150,2013-05-07 23:55:00
7:15 PM,85.1,56.3,37,29.89,10.0,SE,10.4,16.1,N/A,,Clear,130,2013-05-08 00:15:00
7:35 PM,84.4,56.5,38,29.89,10.0,SE,10.4,16.1,N/A,,Clear,130,2013-05-08 00:35:00
7:55 PM,84.0,56.3,39,29.89,10.0,ESE,12.7,17.3,N/A,,Clear,120,2013-05-08 00:55:00
8:15 PM,82.8,57.2,42,29.90,10.0,ESE,11.5,17.3,N/A,,Clear,110,2013-05-08 01:15:00
8:35 PM,81.7,57.2,43,29.90,10.0,ESE,9.2,16.1,N/A,,Clear,110,2013-05-08 01:35:00
8:55 PM,81.3,57.6,44,29.91,10.0,ESE,13.8,18.4,N/A,,Clear,110,2013-05-08 01:55:00
9:15 PM,79.7,59.9,51,29.91,10.0,ESE,15.0,-,N/A,,Clear,110,2013-05-08 02:15:00
9:35 PM,78.8,60.8,54,29.93,10.0,ESE,16.1,19.6,N/A,,Clear,110,2013-05-08 02:35:00
9:55 PM,77.2,61.3,58,29.94,10.0,ESE,16.1,21.9,N/A,,Clear,110,2013-05-08 02:55:00
10:15 PM,76.1,61.7,61,29.94,10.0,ESE,12.7,23.0,N/A,,Clear,110,2013-05-08 03:15:00
10:35 PM,75.2,61.7,63,29.94,10.0,ESE,16.1,24.2,N/A,,Clear,120,2013-05-08 03:35:00
10:55 PM,74.7,61.9,64,29.95,10.0,ESE,11.5,21.9,N/A,,Clear,120,2013-05-08 03:55:00
11:15 PM,74.1,61.9,65,29.95,10.0,ESE,11.5,21.9,N/A,,Clear,110,2013-05-08 04:15:00
11:35 PM,73.8,62.1,67,29.95,10.0,SE,9.2,-,N/A,,Clear,130,2013-05-08 04:35:00
11:55 PM,73.6,62.6,68,29.95,10.0,SE,9.2,19.6,N/A,,Scattered Clouds,140,2013-05-08 04:55:00